Вернуться в каталог

FENGYUN 1C DEB

АктивенSSO
NORAD 37928·DEBRIS·🇨🇳 China

Запущен May 10, 1999 с Taiyuan Satellite Launch Center

Loading…

Ближайшие Пролёты (ближайшие 24 часа)

TLE

СвежийSource: Space-Track

Эпоха: Sep 14, 2026, 03:32 UTC

1 37928U 99025EPD 26257.14755615  .00000986  00000-0  33252-3 0  9991
2 37928  98.8822 146.4279 0070772 301.7829  57.6476 14.37979339851491

Отслеживайте FENGYUN 1C DEB в реальном времени с AllMySat

Download on the App Store